SL-14 DEB, 45283

Orbit data source: Space-Track

SL-14 DEB, 45283 is space debris in LEO originally from a launch on Thu, 15 Aug 1991 UTC launched from the Plesetsk Missile And Space Complex (PKMTR). Debris objects in space refer to the collection of defunct objects orbiting the Earth. Examples of debris include non-operational satellites, rocket bodies, and fragments generated from explosions, collisions, or faulty payload assembly.

Loading next visibility...
Identifier
45283, 1991-056V
Orbit
LEO
Country
Flag of CISCIS
Related business
Manufacturer
Unknown
Mission
Spacecraft
Bus & Motor
Unknown
Mass
Unknown
Launch date (UTC)
1991-08-15 (35 years ago)
Launch vehicle
Unknown
Launch site
Plesetsk Missile And Space Complex (PKMTR)
Object type
Payload
Rocket body
Debris
Shape & HBR
Unknown shape, 0.1 m
Radar Cross Section
Medium (>0.1 m² and <1 m²)

Expand to show TLE details & history
Last TLE update: 9 hours ago

TLE from 9 hours ago
0 SL-14 DEB
1 45283U 91056V   26257.57983680  .00003073  00000-0  11659-1 0  9997
2 45283  82.5230 198.3910 0261175  83.9820 279.0976 12.79987830305830
Epoch: 2026-09-14T13:54Z
TLE epoch observation values (Epoch: 2026-09-14T13:54:57.899Z)
Latitude
-0.00002°
Longitude
-3.90835°
Altitude
1,317.555 km
Speed
7.211 km/s
True Right ascension
13h 13m 33s
True Declination
0° 00' 00"
Sunlit
Object was in daylight at epoch
Visualization orbit readout
Latitude
Unknown
Longitude
Unknown
Altitude
Unknown
Speed
Unknown
Apparent Right ascension
Unknown
Apparent Declination
Unknown
Sunlit
N/A
Visualization observer readout
Local Sidereal Time
15:16:43
Azimuth
Unknown
Elevation
Unknown
Doppler factor
Unknown
Orbital elements
Apogee altitude
1,540.361 km
Perigee altitude
1,137.267 km
Semi-major axis
7,716.951 km
Eccentricity
0.02612
Inclination
82.523°
RAAN
198.391°
Arg. of periapsis
83.982°
True anomaly
276.1284°
Mean anomaly
279.0976°
Eccentric anomaly
277.61437°
Mean motion
3.20166 °/min
Orbital period
112.44 mins
BSTAR
0.011659
Loading maneuver chart data...
Computing Atmospheric mass density...
Loading historical data...
Loading historical data...
Loading historical data...
Loading historical data...
Loading historical data...
Loading historical data...
Loading historical data...

Documentation

Showing up to 5 results
|